Weather History for KAKR - July, 2013

Change the Weather History Date:

Saturday, July 20, 2013

  Actual Average (KCAK) Record (KCAK)
Temperature  
Mean Temperature 73 °F 72 °F  
Max Temperature 79 °F 82 °F 100 °F (1980)
Min Temperature 68 °F 62 °F 45 °F (1965)
Degree Days  
Heating Degree Days 0 0  
Month to date heating degree days 0  
Since 1 June heating degree days 49  
Since 1 July heating degree days 0  
Cooling Degree Days 8 7  
Month to date cooling degree days 140  
Year to date cooling degree days 317  
Since 1 June cooling degree days 275  
Growing Degree Days 23 (Base 50)    
Moisture  
Dew Point 69 °F    
Average Humidity 84    
Maximum Humidity 96    
Minimum Humidity 71    
Precipitation  
Precipitation 0.44 in 0.13 in 1.56 in (1973)
Month to date precipitation 2.65  
Year to date precipitation 22.21  
Snow  
Snow 0.00 in 0.00 in - ()
Month to date snowfall 0.0  
Since 1 June snowfall 0.0  
Since 1 July snowfall 0.0  
Snow Depth -    
Sea Level Pressure  
Sea Level Pressure 29.87 in    
Wind  
Wind Speed 8 mph (SW)    
Max Wind Speed 20 mph    
Max Gust Speed 33 mph    
Visibility 8 miles    
Events Rain    
T = Trace of Precipitation, MM = Missing Value Source: NWS Daily Summary

Daily Weather History Graph

Daily Weather History Graph

Search for Another Location

Airport or City:

Trip Planner

Search our weather history database for the weather conditions in past years. The results will help you decide how hot, cold, wet, or windy it might be!

Date:

Astronomy

Jul. 20, 2013 Rise Set
Actual Time 6:10 AM EDT 8:53 PM EDT
Civil Twilight 5:38 AM EDT 9:25 PM EDT
Nautical Twilight 4:58 AM EDT 10:05 PM EDT
Astronomical Twilight 4:12 AM EDT 10:50 PM EDT
Moon 6:55 PM EDT (7/20) 3:49 AM EDT (7/20)
Length of Visible Light 15h 46m
Length of Day
14h 42m
Waxing Gibbous, 93% of the Moon is Illuminated
Jul 20
Waxing Gibbous
Jul 22
Full
Jul 29
Last Quarter
Aug 6
New
Aug 14
First Quarter

Hourly Weather History & Observations

Time (EDT) Temp. Dew Point Humidity Pressure Visibility Wind Dir Wind Speed Gust Speed Precip Events Conditions
12:54 AM 75.0 °F 70.0 °F 84% 29.85 in 7.0 mi SSW 10.4 mph - N/A   Clear
1:54 AM 73.9 °F 70.0 °F 87% 29.84 in 6.0 mi South 4.6 mph - N/A   Partly Cloudy
2:15 AM 75.2 °F 69.8 °F 83% 29.86 in 7.0 mi SE 3.5 mph - N/A   Mostly Cloudy
2:54 AM 73.9 °F 70.0 °F 87% 29.81 in 5.0 mi SSW 11.5 mph - N/A   Mostly Cloudy
3:04 AM 73.4 °F 71.6 °F 94% 29.84 in 5.0 mi SW 11.5 mph - N/A   Scattered Clouds
3:54 AM 73.9 °F 71.1 °F 91% 29.82 in 5.0 mi SSW 8.1 mph - N/A   Partly Cloudy
4:54 AM 73.0 °F 68.0 °F 84% 29.84 in 6.0 mi NNE 19.6 mph 33.4 mph N/A   Haze
5:04 AM 73.4 °F 66.2 °F 78% 29.88 in 10.0 mi NE 12.7 mph 27.6 mph N/A   Mostly Cloudy
5:34 AM 69.8 °F 66.2 °F 88% 29.89 in 1.8 mi Variable 5.8 mph - 0.14 in Rain Heavy Rain
5:41 AM 68.0 °F 66.2 °F 94% 29.87 in 1.8 mi NE 8.1 mph - 0.20 in Rain Heavy Rain
5:45 AM 68.0 °F 66.2 °F 94% 29.87 in 3.0 mi NE 8.1 mph - 0.20 in Rain Light Rain
5:54 AM 69.1 °F 66.9 °F 93% 29.84 in 10.0 mi SE 3.5 mph - 0.20 in   Mostly Cloudy
6:54 AM 69.1 °F 66.9 °F 93% 29.86 in 10.0 mi SSW 4.6 mph - N/A   Mostly Cloudy
7:54 AM 69.1 °F 66.0 °F 90% 29.90 in 4.0 mi SW 5.8 mph - 0.02 in Rain Rain
8:54 AM 68.0 °F 66.9 °F 96% 29.90 in 5.0 mi South 6.9 mph - 0.11 in Rain Light Rain
9:54 AM 69.1 °F 66.9 °F 93% 29.88 in 4.0 mi South 11.5 mph - 0.07 in Rain Rain
10:54 AM 71.1 °F 66.0 °F 84% 29.85 in 10.0 mi SSW 5.8 mph - 0.03 in   Partly Cloudy
11:54 AM 71.1 °F 66.0 °F 84% 29.87 in 10.0 mi SW 6.9 mph - N/A   Mostly Cloudy
12:54 PM 71.1 °F 66.9 °F 87% 29.84 in 10.0 mi Calm Calm - 0.01 in Rain Light Rain
1:09 PM 71.6 °F 68.0 °F 88% 29.88 in 10.0 mi NW 6.9 mph - 0.00 in   Mostly Cloudy
1:54 PM 75.9 °F 69.1 °F 79% 29.87 in 10.0 mi West 12.7 mph 16.1 mph 0.00 in   Mostly Cloudy
2:07 PM 75.2 °F 69.8 °F 83% 29.89 in 10.0 mi WSW 11.5 mph - N/A   Scattered Clouds
2:54 PM 75.0 °F 68.0 °F 79% 29.86 in 10.0 mi WSW 8.1 mph - N/A   Partly Cloudy
3:54 PM 78.1 °F 68.0 °F 71% 29.86 in 10.0 mi WSW 10.4 mph - N/A   Mostly Cloudy
4:08 PM 77.0 °F 68.0 °F 74% 29.88 in 10.0 mi SW 13.8 mph - N/A   Overcast
4:37 PM 78.8 °F 69.8 °F 74% 29.88 in 10.0 mi West 10.4 mph - N/A   Mostly Cloudy
4:54 PM 78.1 °F 68.0 °F 71% 29.86 in 10.0 mi WSW 11.5 mph - N/A   Scattered Clouds
5:07 PM 78.8 °F 69.8 °F 74% 29.89 in 10.0 mi WSW 9.2 mph - N/A   Mostly Cloudy
5:25 PM 78.8 °F 69.8 °F 74% 29.88 in 10.0 mi West 9.2 mph - N/A   Scattered Clouds
5:54 PM 78.1 °F 69.1 °F 74% 29.86 in 10.0 mi SSW 8.1 mph - N/A   Partly Cloudy
6:54 PM 78.1 °F 69.1 °F 74% 29.86 in 10.0 mi SW 5.8 mph - N/A   Mostly Cloudy
7:08 PM 78.8 °F 69.8 °F 74% 29.88 in 10.0 mi SW 10.4 mph - N/A   Mostly Cloudy
7:23 PM 77.0 °F 69.8 °F 78% 29.88 in 10.0 mi SW 9.2 mph - N/A   Scattered Clouds
7:54 PM 75.9 °F 69.1 °F 79% 29.87 in 10.0 mi SW 8.1 mph - N/A   Clear
8:54 PM 73.9 °F 68.0 °F 82% 29.88 in 10.0 mi SSW 3.5 mph - N/A   Clear
9:54 PM 73.0 °F 69.1 °F 87% 29.90 in 10.0 mi SW 5.8 mph - N/A   Clear
10:50 PM 73.4 °F 69.8 °F 88% 29.94 in 10.0 mi Calm Calm - N/A   Overcast
10:54 PM 73.9 °F 70.0 °F 87% 29.92 in 10.0 mi Calm Calm - N/A   Overcast
11:24 PM 73.4 °F 69.8 °F 88% 29.94 in 10.0 mi Calm Calm - N/A   Mostly Cloudy
11:35 PM 73.4 °F 69.8 °F 88% 29.94 in 10.0 mi Calm Calm - N/A   Mostly Cloudy
11:54 PM 73.0 °F 70.0 °F 90% 29.92 in 10.0 mi Calm Calm - N/A   Overcast